AALTO-2

Last updated on April 5, 2018, 12:15 a.m. UTC

1 42729U 98067MJ  18094.36444783  .00020015  00000-0  18754-3 0  9991
2 42729  51.6377  12.2538 0001025 342.7846  17.3115 15.67208314 48779
UTC
Height (km)
Latitude
Longitude
Inclination
Orbital Period
UTC large
Height (km)
Speed (km/s)
/
Latitude / Longitude
Inclination (degrees)
Orbital Period (minutes)
Azimuth
Elevation
Range (km)
Doppler Factor
iOS Compass Heading
iOS Angle

Next 30 passes for location: Hong Kong

Rise time Rise Azimuth (degrees) Set time Set Azimuth (degrees) Duration Max altitude (degrees)

No matching passes for this satellites